Beatrice, NE

3:15 PM CST on November 22, 2019 (GMT -0600)
Beatrice Municipal

Weather History for KBIE - September, 2019

Change the Weather History Date:

Sunday, September 15, 2019

  Actual Average Record
Temperature  
Mean Temperature 80 °F -  
Max Temperature 90 °F 74 °F 100 °F (1955)
Min Temperature 70 °F 51 °F 36 °F (1961)
Cooling Degree Days 15    
Growing Degree Days 30 (Base 50)    
Moisture  
Dew Point 69 °F    
Average Humidity 69    
Maximum Humidity 86    
Minimum Humidity 49    
Precipitation  
Precipitation 0.00 in - - ()
Sea Level Pressure  
Sea Level Pressure 30.00 in    
Wind  
Wind Speed 8 mph (South)    
Max Wind Speed 14 mph    
Max Gust Speed 18 mph    
Visibility 10 miles    
Events      
Averages and records for this station are not official NWS values.
T = Trace of Precipitation, MM = Missing Value Source: NWS Daily Summary

Daily Weather History Graph

Daily Weather History Graph

Search for Another Location

Airport or City:

Astronomy

Sep. 15, 2019 Rise Set
Actual Time 7:07 AM CDT 7:36 PM CDT
Civil Twilight 6:40 AM CDT 8:03 PM CDT
Nautical Twilight 6:08 AM CDT 8:35 PM CDT
Astronomical Twilight 5:35 AM CDT 9:08 PM CDT
Moon 8:44 PM CDT (9/15) 8:18 AM CDT (9/15)
Length of Visible Light 13h 23m
Length of Day
12h 28m
Full, 98% of the Moon is Illuminated
Sep 15
Full
Sep 21
Last Quarter
Sep 28
New
Oct 5
First Quarter
Oct 13
Full

Hourly Weather History & Observations

Time (CDT) Temp. Heat Index Dew Point Humidity Pressure Visibility Wind Dir Wind Speed Gust Speed Precip Events Conditions
12:15 AM 77.9 °F - 69.1 °F 74% 29.98 in 10.0 mi South 12.7 mph - N/A   Clear
12:35 AM 77.5 °F - 69.1 °F 75% 29.98 in 10.0 mi South 13.8 mph - N/A   Clear
12:55 AM 77.0 °F - 68.9 °F 76% 29.98 in 10.0 mi South 13.8 mph 18.4 mph N/A   Clear
1:15 AM 76.6 °F - 68.9 °F 77% 29.98 in 10.0 mi South 11.5 mph - N/A   Clear
1:35 AM 76.5 °F - 68.7 °F 77% 29.98 in 10.0 mi South 13.8 mph 17.3 mph N/A   Clear
1:55 AM 76.3 °F - 68.5 °F 77% 29.98 in 10.0 mi SSW 12.7 mph - N/A   Clear
2:15 AM 76.3 °F - 68.2 °F 76% 29.98 in 10.0 mi SSW 12.7 mph - N/A   Clear
2:35 AM 75.9 °F - 68.0 °F 76% 29.99 in 10.0 mi SSW 9.2 mph - N/A   Clear
2:55 AM 75.6 °F - 67.8 °F 77% 29.99 in 10.0 mi SSW 8.1 mph - N/A   Clear
3:15 AM 75.6 °F - 67.5 °F 76% 29.99 in 10.0 mi SW 9.2 mph - N/A   Clear
3:35 AM 75.4 °F - 67.1 °F 75% 29.99 in 10.0 mi SW 6.9 mph - N/A   Clear
3:55 AM 73.8 °F - 67.1 °F 80% 30.00 in 10.0 mi West 4.6 mph - N/A   Clear
4:15 AM 72.9 °F - 66.9 °F 82% 29.99 in 10.0 mi SW 6.9 mph - N/A   Clear
4:35 AM 72.5 °F - 66.6 °F 82% 29.99 in 10.0 mi SW 5.8 mph - N/A   Clear
4:55 AM 72.5 °F - 66.4 °F 81% 30.00 in 10.0 mi SW 4.6 mph - N/A   Clear
5:15 AM 71.8 °F - 66.2 °F 83% 29.99 in 10.0 mi SSW 5.8 mph - N/A   Clear
5:35 AM 71.6 °F - 66.2 °F 83% 30.00 in 10.0 mi SSW 6.9 mph - N/A   Clear
5:55 AM 71.6 °F - 66.2 °F 83% 30.00 in 10.0 mi South 6.9 mph - N/A   Clear
6:15 AM 71.1 °F - 65.8 °F 84% 30.00 in 10.0 mi SSW 5.8 mph - N/A   Clear
6:35 AM 72.1 °F - 66.0 °F 81% 30.01 in 10.0 mi SSW 6.9 mph - N/A   Clear
6:55 AM 70.9 °F - 65.8 °F 84% 30.01 in 10.0 mi SSW 6.9 mph - N/A   Clear
7:15 AM 71.2 °F - 65.8 °F 83% 30.01 in 10.0 mi SSW 5.8 mph - N/A   Clear
7:35 AM 70.3 °F - 65.7 °F 85% 30.01 in 10.0 mi South 4.6 mph - N/A   Clear
7:55 AM 70.7 °F - 66.2 °F 86% 30.02 in 10.0 mi South 4.6 mph - N/A   Clear
8:15 AM 72.3 °F - 66.6 °F 82% 30.02 in 10.0 mi Calm Calm - N/A   Clear
8:35 AM 73.6 °F - 66.9 °F 80% 30.02 in 10.0 mi SSW 4.6 mph - N/A   Clear
8:55 AM 75.2 °F - 67.3 °F 76% 30.02 in 10.0 mi SW 5.8 mph - N/A   Clear
9:15 AM 76.6 °F - 67.3 °F 73% 30.02 in 10.0 mi SW 6.9 mph - N/A   Clear
9:35 AM 78.3 °F - 67.6 °F 70% 30.02 in 10.0 mi WSW 9.2 mph - N/A   Clear
9:55 AM 79.0 °F - 67.3 °F 67% 30.03 in 10.0 mi WSW 8.1 mph - N/A   Clear
10:15 AM 79.9 °F - 67.8 °F 66% 30.03 in 10.0 mi WSW 8.1 mph - N/A   Clear
10:55 AM 82.0 °F 85.1 °F 68.4 °F 63% 30.03 in 10.0 mi WSW 6.9 mph - N/A   Clear
11:15 AM 82.9 °F 86.3 °F 68.9 °F 62% 30.03 in 10.0 mi WSW 5.8 mph - N/A   Clear
11:35 AM 83.3 °F 86.4 °F 68.2 °F 60% 30.03 in 10.0 mi West 6.9 mph - N/A   Clear
11:55 AM 84.6 °F 88.8 °F 69.8 °F 61% 30.03 in 10.0 mi West 4.6 mph - N/A   Clear
12:15 PM 85.1 °F 89.1 °F 69.3 °F 59% 30.03 in 10.0 mi SW 3.5 mph - N/A   Clear
12:35 PM 86.0 °F 90.1 °F 69.3 °F 57% 30.03 in 10.0 mi WSW 3.5 mph - N/A   Clear
12:55 PM 86.7 °F 90.6 °F 68.5 °F 55% 30.02 in 10.0 mi WSW 3.5 mph - N/A   Clear
1:15 PM 87.1 °F 91.6 °F 69.4 °F 56% 30.02 in 10.0 mi Calm Calm - N/A   Clear
1:35 PM 88.0 °F 92.9 °F 69.8 °F 55% 30.02 in 10.0 mi Calm Calm - N/A   Clear
1:55 PM 88.9 °F 93.4 °F 69.3 °F 52% 30.01 in 10.0 mi South 4.6 mph - N/A   Clear
2:15 PM 89.4 °F 93.1 °F 68.2 °F 49% 30.00 in 10.0 mi SW 4.6 mph - N/A   Clear
2:35 PM 89.6 °F 94.3 °F 69.1 °F 51% 30.00 in 10.0 mi SSW 4.6 mph - N/A   Clear
2:55 PM 90.0 °F 95.0 °F 69.6 °F 51% 30.00 in 10.0 mi South 4.6 mph - N/A   Clear
3:15 PM 90.0 °F 95.4 °F 70.0 °F 52% 30.00 in 10.0 mi South 6.9 mph - N/A   Clear
3:35 PM 90.5 °F 96.5 °F 70.9 °F 52% 29.99 in 10.0 mi SE 5.8 mph - N/A   Clear
3:55 PM 90.5 °F 95.5 °F 69.4 °F 50% 29.99 in 10.0 mi SSE 5.8 mph - N/A   Clear
4:15 PM 90.5 °F 95.5 °F 69.6 °F 50% 29.98 in 10.0 mi SE 4.6 mph - N/A   Clear
4:35 PM 90.5 °F 96.5 °F 70.5 °F 52% 29.98 in 10.0 mi SSE 8.1 mph - N/A   Clear
4:55 PM 90.7 °F 95.9 °F 70.0 °F 50% 29.99 in 10.0 mi South 3.5 mph - N/A   Clear
5:15 PM 90.7 °F 95.9 °F 70.0 °F 50% 29.98 in 10.0 mi Calm Calm - N/A   Clear
5:35 PM 90.5 °F 95.5 °F 69.8 °F 50% 29.98 in 10.0 mi SSE 4.6 mph - N/A   Clear
5:55 PM 90.0 °F 95.9 °F 70.5 °F 53% 29.98 in 10.0 mi SSE 3.5 mph - N/A   Clear
6:15 PM 90.1 °F 95.8 °F 70.3 °F 52% 29.98 in 10.0 mi ESE 3.5 mph - N/A   Clear
6:35 PM 89.4 °F 95.3 °F 70.7 °F 54% 29.97 in 10.0 mi East 4.6 mph - N/A   Clear
6:55 PM 88.2 °F 95.0 °F 72.1 °F 59% 29.97 in 10.0 mi East 3.5 mph - N/A   Clear
7:15 PM 86.5 °F 93.3 °F 72.5 °F 63% 29.97 in 10.0 mi East 3.5 mph - N/A   Clear
7:35 PM 84.9 °F 90.7 °F 72.0 °F 65% 29.97 in 10.0 mi East 3.5 mph - N/A   Clear
7:55 PM 83.3 °F 89.0 °F 72.5 °F 70% 29.97 in 10.0 mi East 3.5 mph - N/A   Clear
8:15 PM 82.0 °F 87.0 °F 72.1 °F 72% 29.97 in 10.0 mi East 3.5 mph - N/A   Clear
8:35 PM 81.1 °F 85.4 °F 71.6 °F 73% 29.98 in 10.0 mi East 3.5 mph - N/A   Clear
8:55 PM 80.6 °F 84.6 °F 71.6 °F 74% 29.98 in 10.0 mi ESE 5.8 mph - N/A   Clear
9:15 PM 79.2 °F - 71.6 °F 78% 29.98 in 10.0 mi ESE 4.6 mph - N/A   Clear
9:35 PM 79.5 °F - 71.6 °F 77% 29.99 in 10.0 mi East 3.5 mph - N/A   Clear
9:55 PM 78.8 °F - 71.4 °F 78% 29.99 in 10.0 mi Calm Calm - N/A   Clear
10:15 PM 78.3 °F - 71.2 °F 79% 30.00 in 10.0 mi SE 3.5 mph - N/A   Clear
10:35 PM 78.1 °F - 70.9 °F 78% 30.00 in 10.0 mi SE 5.8 mph - N/A   Clear
10:55 PM 78.8 °F - 70.5 °F 76% 30.00 in 10.0 mi SE 8.1 mph - N/A   Clear
11:15 PM 78.3 °F - 70.2 °F 76% 30.00 in 10.0 mi SSE 6.9 mph - N/A   Clear
11:35 PM 77.9 °F - 69.3 °F 75% 30.00 in 10.0 mi SSE 6.9 mph - N/A   Clear
11:55 PM 77.5 °F - 68.0 °F 72% 30.00 in 10.0 mi South 8.1 mph - N/A   Clear